Tracking 31027 objects as of 19-Jul-2025
HD Live streaming from Space Station
objects crossing your sky now

STARLINK-4465

Track STARLINK-4465 now!
10-day predictions
STARLINK-4465 is classified as:


NORAD ID: 53496
Int'l Code: 2022-099AH
Perigee: 539.9 km
Apogee: 542.1 km
Inclination: 97.7 °
Period: 95.3 minutes
Semi major axis: 6911 km
RCS: Unknown
Launch date: August 12, 2022
Source: United States (US)
Launch site: AIR FORCE WESTERN TEST RANGE (AFWTR)
Your satellite tracking list
SL-8 R/B
Track 1 satellite(s)




NASA's NSSDC Master Catalog

Two Line Element Set (TLE):
1 53496U 22099AH  25199.91668981 -.00010539  00000-0 -63258-3 0  9990
2 53496  97.6554 321.1788 0001554  50.3336  91.6362 15.10767580161151
Source of the keplerian elements: AFSPC